When you browse on this site, cookies collect data to enhance your experience and personalize the content and advertising you see.
Visit our Privacy Policy to learn more. By continuing to use the site, you agree to this use of cookies and data.
  • In Italy
  • List of Countries
  • For 7 days
  • Water Temperature
  • Satellite Maps
  • Weather Map
  • Weather Widgets
  • user-avatar
    Login

    Hourly Weather Korçe

    Today, 18 June, Tuesday

    Time Temperature Precipitation Wind Pressure Humidity
    00:00 +15°C° 0 mm 1 mps 666 mmHg 74%
    01:00 +15°C° 0 mm 1 mps 666 mmHg 76%
    02:00 +14°C° 0 mm 1 mps 666 mmHg 75%
    03:00 +14°C° 0 mm 1 mps 666 mmHg 75%
    04:00 +14°C° 0 mm 1 mps 666 mmHg 74%
    05:00 +16°C° 0 mm 1 mps 667 mmHg 70%
    06:00 +19°C° 0 mm 1 mps 667 mmHg 66%
    07:00 +19°C° 0 mm 0 mps 668 mmHg 62%
    08:00 +23°C° 0 mm 1 mps 668 mmHg 56%
    09:00 +24°C° 0 mm 1 mps 669 mmHg 51%
    10:00 +26°C° 0 mm 1 mps 669 mmHg 45%
    11:00 +26°C° 0 mm 1 mps 669 mmHg 43%
    12:00 +26°C° 0 mm 2 mps 669 mmHg 41%
    13:00 +27°C° 0 mm 3 mps 669 mmHg 40%
    14:00 +26°C° 0.1 mm 3 mps 668 mmHg 45%
    15:00 +25°C° 0.1 mm 3 mps 668 mmHg 50%
    16:00 +24°C° 0.1 mm 3 mps 668 mmHg 55%
    17:00 +21°C° 0.2 mm 2 mps 667 mmHg 63%
    18:00 +21°C° 0.2 mm 1 mps 667 mmHg 70%
    19:00 +19°C° 0.2 mm 1 mps 666 mmHg 78%
    20:00 +18°C° 0 mm 1 mps 666 mmHg 78%
    21:00 +15°C° 0 mm 0 mps 666 mmHg 78%
    22:00 +14°C° 0 mm 0 mps 666 mmHg 78%
    23:00 +14°C° 0 mm 0 mps 666 mmHg 77%

    Tomorrow, 19 June, Wednesday

    Time Temperature Precipitation Wind Pressure Humidity
    00:00 +15°C° 0 mm 1 mps 666 mmHg 75%
    01:00 +14°C° 0 mm 1 mps 666 mmHg 74%
    02:00 +14°C° 0 mm 1 mps 665 mmHg 72%
    03:00 +14°C° 0 mm 1 mps 665 mmHg 70%
    04:00 +14°C° 0 mm 1 mps 665 mmHg 69%
    05:00 +15°C° 0 mm 0 mps 666 mmHg 64%
    06:00 +17°C° 0 mm 0 mps 666 mmHg 59%
    07:00 +19°C° 0 mm 0 mps 667 mmHg 55%
    08:00 +20°C° 0 mm 0 mps 667 mmHg 49%
    09:00 +24°C° 0 mm 1 mps 668 mmHg 43%
    10:00 +25°C° 0 mm 1 mps 668 mmHg 38%
    11:00 +25°C° 0 mm 2 mps 668 mmHg 38%
    12:00 +26°C° 0 mm 2 mps 668 mmHg 38%
    13:00 +26°C° 0 mm 2 mps 668 mmHg 38%
    14:00 +25°C° 0 mm 3 mps 667 mmHg 41%
    15:00 +25°C° 0 mm 3 mps 667 mmHg 44%
    16:00 +24°C° 0 mm 3 mps 666 mmHg 47%
    17:00 +21°C° 0 mm 2 mps 666 mmHg 59%
    18:00 +19°C° 0 mm 2 mps 666 mmHg 71%
    19:00 +18°C° 0 mm 1 mps 665 mmHg 83%
    20:00 +18°C° 0 mm 1 mps 665 mmHg 85%
    21:00 +16°C° 0 mm 1 mps 665 mmHg 87%
    22:00 +15°C° 0 mm 1 mps 665 mmHg 89%
    23:00 +15°C° 0 mm 1 mps 665 mmHg 87%

    Day after tomorrow, 20 June, Thursday

    Time Temperature Precipitation Wind Pressure Humidity
    00:00 +14°C° 0 mm 0 mps 665 mmHg 85%
    01:00 +14°C° 0 mm 0 mps 665 mmHg 83%
    02:00 +14°C° 0 mm 1 mps 665 mmHg 82%
    03:00 +14°C° 0 mm 1 mps 664 mmHg 82%
    04:00 +14°C° 0 mm 1 mps 664 mmHg 81%
    05:00 +16°C° 0 mm 1 mps 665 mmHg 74%
    06:00 +19°C° 0 mm 1 mps 666 mmHg 67%
    07:00 +19°C° 0 mm 0 mps 666 mmHg 60%
    08:00 +22°C° 0 mm 1 mps 667 mmHg 56%
    09:00 +23°C° 0 mm 1 mps 667 mmHg 51%
    10:00 +24°C° 0 mm 2 mps 667 mmHg 47%
    11:00 +25°C° 0 mm 2 mps 667 mmHg 46%
    12:00 +25°C° 0 mm 3 mps 667 mmHg 45%
    13:00 +26°C° 0 mm 3 mps 667 mmHg 44%
    14:00 +25°C° 0 mm 3 mps 667 mmHg 45%
    15:00 +25°C° 0 mm 3 mps 667 mmHg 47%
    16:00 +24°C° 0 mm 3 mps 667 mmHg 48%
    17:00 +21°C° 0 mm 3 mps 666 mmHg 57%
    18:00 +19°C° 0 mm 2 mps 666 mmHg 67%
    19:00 +18°C° 0 mm 1 mps 665 mmHg 76%
    20:00 +16°C° 0 mm 1 mps 665 mmHg 77%
    21:00 +16°C° 0 mm 1 mps 666 mmHg 79%
    22:00 +15°C° 0 mm 1 mps 666 mmHg 81%
    23:00 +14°C° 0 mm 0 mps 665 mmHg 77%

    21 June, Friday

    Time Temperature Precipitation Wind Pressure Humidity
    00:00 +14°C° 0 mm 0 mps 665 mmHg 73%
    01:00 +14°C° 0 mm 0 mps 665 mmHg 69%
    02:00 +14°C° 0 mm 0 mps 665 mmHg 68%
    03:00 +14°C° 0 mm 1 mps 665 mmHg 67%
    04:00 +14°C° 0 mm 1 mps 665 mmHg 65%
    05:00 +16°C° 0 mm 1 mps 666 mmHg 62%
    06:00 +19°C° 0 mm 1 mps 667 mmHg 59%
    07:00 +21°C° 0 mm 1 mps 667 mmHg 57%
    08:00 +22°C° 0 mm 1 mps 668 mmHg 54%
    09:00 +24°C° 0 mm 1 mps 668 mmHg 51%
    10:00 +25°C° 0 mm 2 mps 669 mmHg 49%
    11:00 +26°C° 0 mm 2 mps 669 mmHg 49%
    12:00 +26°C° 0 mm 2 mps 669 mmHg 49%
    13:00 +27°C° 0 mm 3 mps 669 mmHg 49%
    14:00 +26°C° 0.3 mm 3 mps 668 mmHg 53%
    15:00 +26°C° 0.3 mm 3 mps 668 mmHg 56%
    16:00 +25°C° 0.3 mm 3 mps 668 mmHg 59%
    17:00 +23°C° 0 mm 2 mps 667 mmHg 67%
    18:00 +21°C° 0 mm 2 mps 667 mmHg 74%
    19:00 +20°C° 0 mm 1 mps 667 mmHg 82%
    20:00 +19°C° 0 mm 1 mps 667 mmHg 84%
    21:00 +18°C° 0 mm 1 mps 667 mmHg 86%
    22:00 +18°C° 0 mm 1 mps 667 mmHg 87%
    23:00 +16°C° 0 mm 1 mps 667 mmHg 86%

    22 June, Saturday

    Time Temperature Precipitation Wind Pressure Humidity
    00:00 +16°C° 0 mm 1 mps 667 mmHg 85%
    01:00 +16°C° 0 mm 1 mps 667 mmHg 84%
    02:00 +16°C° 0 mm 1 mps 666 mmHg 83%
    03:00 +15°C° 0 mm 1 mps 666 mmHg 82%
    04:00 +15°C° 0 mm 1 mps 666 mmHg 81%
    05:00 +18°C° 0 mm 1 mps 667 mmHg 75%
    06:00 +20°C° 0 mm 1 mps 668 mmHg 68%
    07:00 +21°C° 0 mm 0 mps 669 mmHg 62%
    08:00 +24°C° 0 mm 1 mps 669 mmHg 55%
    09:00 +26°C° 0 mm 1 mps 670 mmHg 48%
    10:00 +28°C° 0 mm 1 mps 670 mmHg 40%
    11:00 +28°C° 0 mm 1 mps 670 mmHg 39%
    12:00 +29°C° 0 mm 2 mps 670 mmHg 38%
    13:00 +29°C° 0 mm 2 mps 670 mmHg 36%
    14:00 +29°C° 0 mm 2 mps 670 mmHg 39%
    15:00 +29°C° 0 mm 2 mps 670 mmHg 41%
    16:00 +28°C° 0 mm 2 mps 670 mmHg 43%
    17:00 +26°C° 0 mm 2 mps 669 mmHg 51%
    18:00 +24°C° 0 mm 1 mps 669 mmHg 60%
    19:00 +22°C° 0 mm 1 mps 668 mmHg 68%
    20:00 +21°C° 0 mm 1 mps 668 mmHg 69%
    21:00 +20°C° 0 mm 1 mps 668 mmHg 71%
    22:00 +19°C° 0 mm 1 mps 668 mmHg 72%
    23:00 +19°C° 0 mm 1 mps 668 mmHg 70%

    23 June, Sunday

    Time Temperature Precipitation Wind Pressure Humidity
    00:00 +19°C° 0 mm 1 mps 668 mmHg 68%
    01:00 +19°C° 0 mm 1 mps 668 mmHg 66%
    02:00 +19°C° 0 mm 1 mps 668 mmHg 64%
    03:00 +18°C° 0 mm 1 mps 668 mmHg 62%
    04:00 +18°C° 0 mm 1 mps 668 mmHg 60%
    05:00 +21°C° 0 mm 1 mps 669 mmHg 57%
    06:00 +21°C° 0 mm 0 mps 669 mmHg 53%
    07:00 +23°C° 0 mm 0 mps 670 mmHg 49%
    08:00 +26°C° 0 mm 1 mps 671 mmHg 45%
    09:00 +28°C° 0 mm 1 mps 671 mmHg 42%
    10:00 +29°C° 0 mm 2 mps 672 mmHg 38%
    11:00 +30°C° 0 mm 2 mps 672 mmHg 37%
    12:00 +30°C° 0 mm 2 mps 672 mmHg 37%
    13:00 +31°C° 0 mm 3 mps 672 mmHg 37%
    14:00 +30°C° 0 mm 3 mps 671 mmHg 38%
    15:00 +30°C° 0 mm 3 mps 671 mmHg 40%
    16:00 +29°C° 0 mm 3 mps 671 mmHg 41%
    17:00 +27°C° 0 mm 2 mps 670 mmHg 50%
    18:00 +25°C° 0 mm 2 mps 670 mmHg 58%
    19:00 +22°C° 0 mm 1 mps 669 mmHg 67%
    20:00 +21°C° 0 mm 1 mps 669 mmHg 67%
    21:00 +21°C° 0 mm 1 mps 669 mmHg 67%
    22:00 +20°C° 0 mm 1 mps 669 mmHg 67%
    23:00 +19°C° 0 mm 1 mps 669 mmHg 64%
    Show more